Retour au catalogue

FENGYUN 1C DEB *

LostSSO
NORAD 47039·DEBRIS·🇨🇳 China

Lancé May 10, 1999 depuis Taiyuan Satellite Launch Center

Loading…

Prochains Passages (prochaines 24 heures)

TLE

PériméSource: Space-Track

Époque: Oct 17, 2022, 06:33 UTC

1 47039U 99025FBR 22290.27305854  .00006956  00000-0  32251-2 0  9998
2 47039  98.3651 291.8071 0113726 334.2825  90.7892 14.17647579438250

Suivez FENGYUN 1C DEB * en temps réel avec AllMySat

Download on the App Store